Weather History for Nacogdoches, TX

Change the Weather History Date:

Sunday, February 24, 2013

  Actual Average Record
Temperature  
Mean Temperature 52 °F -  
Max Temperature 69 °F 60 °F 78 °F (2011)
Min Temperature 35 °F 42 °F 32 °F (1999)
Degree Days  
Heating Degree Days 13    
Growing Degree Days 2 (Base 50)    
Moisture  
Dew Point 39 °F    
Average Humidity 61    
Maximum Humidity 87    
Minimum Humidity 38    
Precipitation  
Precipitation 0.00 in - - ()
Sea Level Pressure  
Sea Level Pressure 29.87 in    
Wind  
Wind Speed 5 mph (ESE)    
Max Wind Speed 12 mph    
Max Gust Speed 16 mph    
Visibility 10 miles    
Events      
Averages and records for this station are not official NWS values.
T = Trace of Precipitation, MM = Missing Value Source: NWS Daily Summary

Daily Weather History Graph

Daily Weather History Graph

Search for Another Location

Airport:

Trip Planner

Search our weather history database for the weather conditions in past years. The results will help you decide how hot, cold, wet, or windy it might be!

Date:

Astronomy

Feb. 24, 2013 Rise Set
Actual Time 6:51 AM CST 6:13 PM CST
Civil Twilight 6:26 AM CST 6:37 PM CST
Nautical Twilight 5:58 AM CST 7:06 PM CST
Astronomical Twilight 5:30 AM CST 7:34 PM CST
Moon 5:25 PM CST (2/24) 5:47 AM CST (2/24)
Length of Visible Light 12h 11m
Length of Day
11h 22m
Waxing Gibbous, 99% of the Moon is Illuminated
Feb 24
Waxing Gibbous
Feb 25
Full
Mar 4
Last Quarter
Mar 11
New
Mar 19
First Quarter

Hourly Weather History & Observations

Time (CST) Temp. Windchill Dew Point Humidity Pressure Visibility Wind Dir Wind Speed Gust Speed Precip Events Conditions
12:15 AM 37.4 °F - 33.8 °F 87% 29.96 in 10.0 mi Calm Calm - N/A   Clear
12:35 AM 39.2 °F 34.2 °F 35.6 °F 87% 29.95 in 10.0 mi East 6.9 mph - N/A   Clear
12:55 AM 39.2 °F 37.0 °F 33.8 °F 81% 29.95 in 10.0 mi East 3.5 mph - N/A   Clear
1:15 AM 42.8 °F 39.3 °F 35.6 °F 76% 29.95 in 10.0 mi East 5.8 mph - N/A   Clear
1:35 AM 39.2 °F - 33.8 °F 81% 29.96 in 10.0 mi Calm Calm - N/A   Clear
1:55 AM 37.4 °F - 33.8 °F 87% 29.96 in 10.0 mi Calm Calm - N/A   Clear
2:15 AM 37.4 °F - 30.2 °F 75% 29.96 in 10.0 mi Calm Calm - N/A   Clear
2:35 AM 35.6 °F 31.7 °F 30.2 °F 81% 29.96 in 10.0 mi North 4.6 mph - N/A   Clear
2:55 AM 35.6 °F - 30.2 °F 81% 29.95 in 10.0 mi Calm Calm - N/A   Clear
3:15 AM 35.6 °F - 32.0 °F 87% 29.95 in 10.0 mi Calm Calm - N/A   Clear
3:35 AM 35.6 °F - 32.0 °F 87% 29.94 in 10.0 mi Calm Calm - N/A   Clear
3:55 AM 35.6 °F - 30.2 °F 81% 29.94 in 10.0 mi Calm Calm - N/A   Clear
4:15 AM 35.6 °F - 30.2 °F 81% 29.94 in 9.0 mi Calm Calm - N/A   Clear
4:35 AM 35.6 °F - 30.2 °F 81% 29.94 in 10.0 mi Calm Calm - N/A   Clear
4:55 AM 39.2 °F 33.6 °F 35.6 °F 87% 29.93 in 10.0 mi East 8.1 mph - N/A   Clear
5:15 AM 42.8 °F 38.6 °F 35.6 °F 76% 29.93 in 10.0 mi East 6.9 mph - N/A   Clear
5:35 AM 42.8 °F 38.6 °F 35.6 °F 76% 29.94 in 10.0 mi East 6.9 mph - N/A   Clear
5:55 AM 42.8 °F 39.3 °F 35.6 °F 76% 29.94 in 10.0 mi East 5.8 mph - N/A   Clear
6:15 AM 42.8 °F 38.6 °F 35.6 °F 76% 29.94 in 10.0 mi East 6.9 mph - N/A   Clear
6:35 AM 41.0 °F 38.0 °F 35.6 °F 81% 29.95 in 10.0 mi East 4.6 mph - N/A   Clear
7:15 AM 37.4 °F - 30.2 °F 75% 29.96 in 10.0 mi Calm Calm - N/A   Clear
7:35 AM 37.4 °F - 33.8 °F 87% 29.97 in 10.0 mi Calm Calm - N/A   Clear
7:55 AM 44.6 °F 40.7 °F 37.4 °F 76% 29.97 in 10.0 mi East 6.9 mph - N/A   Clear
8:15 AM 46.4 °F 41.9 °F 37.4 °F 71% 29.97 in 10.0 mi East 9.2 mph - N/A   Clear
8:35 AM 48.2 °F - 37.4 °F 66% 29.97 in 10.0 mi ESE 9.2 mph - N/A   Clear
8:55 AM 50.0 °F - 37.4 °F 62% 29.97 in 10.0 mi ESE 11.5 mph - N/A   Clear
9:15 AM 51.8 °F - 39.2 °F 62% 29.98 in 10.0 mi SE 10.4 mph - N/A   Clear
9:35 AM 53.6 °F - 39.2 °F 58% 29.98 in 10.0 mi ESE 11.5 mph - N/A   Clear
9:55 AM 55.4 °F - 41.0 °F 58% 29.98 in 10.0 mi ESE 10.4 mph - N/A   Clear
10:15 AM 57.2 °F - 41.0 °F 55% 29.98 in 10.0 mi SE 8.1 mph - N/A   Clear
10:35 AM 59.0 °F - 42.8 °F 55% 29.97 in 10.0 mi SE 11.5 mph - N/A   Clear
10:55 AM 59.0 °F - 41.0 °F 51% 29.96 in 10.0 mi SSE 8.1 mph - N/A   Clear
11:15 AM 60.8 °F - 42.8 °F 52% 29.95 in 10.0 mi SE 8.1 mph - N/A   Clear
11:35 AM 62.6 °F - 41.0 °F 45% 29.94 in 10.0 mi East 10.4 mph - N/A   Clear
11:55 AM 62.6 °F - 42.8 °F 48% 29.94 in 10.0 mi ESE 9.2 mph - N/A   Clear
12:15 PM 64.4 °F - 41.0 °F 42% 29.92 in 10.0 mi SE 10.4 mph - N/A   Clear
12:35 PM 64.4 °F - 42.8 °F 45% 29.91 in 10.0 mi East 10.4 mph - N/A   Clear
12:55 PM 64.4 °F - 42.8 °F 45% 29.90 in 10.0 mi East 8.1 mph - N/A   Clear
1:15 PM 66.2 °F - 42.8 °F 43% 29.88 in 10.0 mi ESE 11.5 mph 16.1 mph N/A   Clear
1:35 PM 66.2 °F - 42.8 °F 43% 29.87 in 10.0 mi ESE 10.4 mph - N/A   Clear
1:55 PM 66.2 °F - 42.8 °F 43% 29.85 in 10.0 mi SSE 10.4 mph - N/A   Clear
2:15 PM 66.2 °F - 42.8 °F 43% 29.84 in 10.0 mi ESE 9.2 mph - N/A   Clear
2:35 PM 68.0 °F - 42.8 °F 40% 29.84 in 10.0 mi ESE 9.2 mph - N/A   Clear
2:55 PM 66.2 °F - 42.8 °F 43% 29.82 in 10.0 mi ESE 10.4 mph - N/A   Clear
3:15 PM 69.8 °F - 44.6 °F 40% 29.82 in 10.0 mi SE 10.4 mph - N/A   Clear
3:35 PM 68.0 °F - 44.6 °F 43% 29.81 in 10.0 mi SE 10.4 mph - N/A   Clear
3:55 PM 69.8 °F - 44.6 °F 40% 29.79 in 10.0 mi ESE 6.9 mph - N/A   Clear
4:15 PM 69.8 °F - 42.8 °F 38% 29.78 in 10.0 mi SE 5.8 mph - N/A   Clear
4:35 PM 66.2 °F - 42.8 °F 43% 29.78 in 10.0 mi SSE 11.5 mph - N/A   Clear
4:55 PM 66.2 °F - 42.8 °F 43% 29.78 in 10.0 mi SSE 8.1 mph - N/A   Clear
5:15 PM 64.4 °F - 42.8 °F 45% 29.77 in 10.0 mi SE 6.9 mph - N/A   Clear
5:35 PM 64.4 °F - 42.8 °F 45% 29.78 in 10.0 mi SE 4.6 mph - N/A   Clear
5:55 PM 62.6 °F - 44.6 °F 52% 29.77 in 10.0 mi ESE 4.6 mph - N/A   Clear
6:15 PM 62.6 °F - 44.6 °F 52% 29.77 in 10.0 mi SE 4.6 mph - N/A   Clear
6:35 PM 60.8 °F - 44.6 °F 55% 29.78 in 10.0 mi SE 4.6 mph - N/A   Clear
6:55 PM 60.8 °F - 44.6 °F 55% 29.78 in 10.0 mi ESE 4.6 mph - N/A   Partly Cloudy
7:15 PM 60.8 °F - 44.6 °F 55% 29.77 in 10.0 mi Calm Calm - N/A   Partly Cloudy
7:35 PM 57.2 °F - 44.6 °F 63% 29.77 in 10.0 mi East 3.5 mph - N/A   Clear
7:55 PM 55.4 °F - 44.6 °F 67% 29.76 in 10.0 mi East 4.6 mph - N/A   Clear
8:15 PM 55.4 °F - 44.6 °F 67% 29.76 in 10.0 mi ESE 5.8 mph - N/A   Clear
8:35 PM 57.2 °F - 44.6 °F 63% 29.77 in 10.0 mi SE 5.8 mph - N/A   Clear
8:55 PM 57.2 °F - 42.8 °F 59% 29.77 in 10.0 mi ESE 5.8 mph - N/A   Scattered Clouds
9:15 PM 57.2 °F - 42.8 °F 59% 29.76 in 10.0 mi ESE 6.9 mph - N/A   Mostly Cloudy
9:35 PM 59.0 °F - 42.8 °F 55% 29.76 in 10.0 mi East 5.8 mph - N/A   Overcast
9:55 PM 59.0 °F - 41.0 °F 51% 29.76 in 10.0 mi ESE 6.9 mph - N/A   Overcast
10:15 PM 59.0 °F - 41.0 °F 51% 29.75 in 10.0 mi ESE 5.8 mph - N/A   Overcast
10:35 PM 59.0 °F - 41.0 °F 51% 29.74 in 10.0 mi ESE 5.8 mph - N/A   Overcast
10:55 PM 59.0 °F - 41.0 °F 51% 29.74 in 10.0 mi ESE 4.6 mph - N/A   Overcast
11:15 PM 59.0 °F - 41.0 °F 51% 29.73 in 10.0 mi ESE 5.8 mph - N/A   Overcast
11:35 PM 59.0 °F - 41.0 °F 51% 29.72 in 10.0 mi East 4.6 mph - N/A   Overcast
11:55 PM 59.0 °F - 42.8 °F 55% 29.72 in 10.0 mi East 6.9 mph - N/A   Overcast